Weather Roundup
Issued by NWS Springfield, MO

Home | Current Version | Previous Version | Text Only | Print | Product List | Glossary On
Versions: 1 2 3 4 5 6 7 8 9 10 11 12 13 14 15 16 17 18 19 20 21 22 23 24 25 26 27 28 29 30 31 32 33 34 35 36 37 38 39 40 41 42 43 44 45 46 47 48 49 50
000
NZUS99 KSGF 290707
HRRSGF

HOURLY WEATHER
NATIONAL WEATHER SERVICE SPRINGFIELD MO
200 AM CDT SAT AUG 29 2015

......SGF CWA......

CITY           SKY/WX    TMP DP  RH WIND       PRES   REMARKS
SPRINGFIELD    CLOUDY    72  60  66 S14       30.00S
JOPLIN         MOCLDY    73  63  70 S12       29.97S
WEST PLAINS    CLOUDY    69  61  75 SW3       30.06S
ROLLA          MOCLDY    69  60  73 S10       30.00F
OSAGE BEACH    MOCLDY    70  59  68 SE3       29.99F
BRANSON        CLOUDY    70  61  73 CALM      30.05S

......SURROUNDING SGF CWA......

CITY           SKY/WX    TMP DP  RH WIND       PRES   REMARKS
CHANUTE        PTCLDY    70  68  93 S7        29.96S
PARSONS        HVY RAIN  73  68  84 S6        29.97F
COFFEYVILLE    MOCLDY    69  67  93 NE3       29.96R
EMPORIA        CLEAR     69  68  96 NW7       29.97S
GROVE OK       MOCLDY    73  63  68 SE3       29.99R
ROGERS AR      CLOUDY    71  63  75 SE7       30.02F
SILOAM SPRINGS CLOUDY    72  59  64 S5        29.99F
NEAR YELLVILLE CLOUDY    70  57  64 CALM      30.02S

......KANSAS AND MISSOURI......

CITY           SKY/WX    TMP DP  RH WIND       PRES   REMARKS
KANSAS CTY INT CLOUDY    70  68  93 S5        29.93F
DOWNTOWN KC    CLOUDY    73  69  87 SW5       29.92F
COLUMBIA       CLOUDY    69  63  81 S7        30.00S
SEDALIA        CLOUDY    71  63  75 S8        29.97F
ST JOSEPH      CLOUDY    69  66  90 NE3       29.93S
ST LOUIS       CLOUDY    74  62  66 S6        30.04R
SPIRIT OF STL  CLOUDY    69  65  86 CALM      30.02R
KIRKSVILLE     CLOUDY    69  63  81 S7        29.96S
WICHITA        CLEAR     73  67  81 N9        29.98F
TOPEKA         MOCLDY    70  68  93 W6        29.95S
OLATHE         CLOUDY    70  68  93 S6        29.94S

......TENNESSEE......

CITY           SKY/WX    TMP DP  RH WIND       PRES   REMARKS
MEMPHIS        PTCLDY    73  65  75 S6        30.02F
NASHVILLE      CLEAR     71  65  81 S6        30.10F

......ARKANSAS.......

CITY           SKY/WX    TMP DP  RH WIND       PRES   REMARKS
FAYETTEVILLE   CLOUDY    73  61  65 VRB3      30.01F
FT SMITH       CLOUDY    73  65  75 E7        29.99F
LITTLE ROCK    CLOUDY    72  63  73 CALM      30.01F

......OKLAHOMA.......

CITY           SKY/WX    TMP DP  RH WIND       PRES   REMARKS
TULSA          PTCLDY    75  67  76 S9        29.94S
PONCA CITY     LGT RAIN  71  68  90 N5        29.96R
MCALESTER      CLOUDY    78  59  51 VRB6      29.98F
OKLAHOMA CITY  MOCLDY    71  66  84 S7        29.97S

......IOWA............

CITY           SKY/WX    TMP DP  RH WIND       PRES   REMARKS
DES MOINES     FOG       68  66  93 W7        29.90S VSB 1/2
QUAD CITIES    CLOUDY    66  62  87 E9        29.97F

......ILLINOIS........

CITY           SKY/WX    TMP DP  RH WIND       PRES   REMARKS
QUINCY         CLOUDY    69  63  81 S10       29.99S
CHICAGO        CLOUDY    68  63  84 SE5       30.06F




USA.gov is the U.S. government's official web portal to all federal, state and local government web resources and services.